Weather History for Newark, NJ

Change the Weather History Date:

Saturday, April 19, 2014

  Actual Average Record
Temperature  
Mean Temperature 54 °F 54 °F  
Max Temperature 69 °F 63 °F 92 °F (1976)
Min Temperature 38 °F 45 °F 33 °F (2001)
Degree Days  
Heating Degree Days 11 11  
Month to date heating degree days 250 273  
Since 1 July heating degree days 4959 4617  
Cooling Degree Days 0 0  
Month to date cooling degree days 8 0  
Year to date cooling degree days 8 1  
Growing Degree Days 3 (Base 50)    
Moisture  
Dew Point 28 °F    
Average Humidity 50    
Maximum Humidity 85    
Minimum Humidity 15    
Precipitation  
Precipitation 0.00 in 0.13 in 1.97 in (1978)
Month to date precipitation 1.96 2.74  
Year to date precipitation 13.33 13.34  
Snow  
Snow 0.00 in 0.00 in 4.10 in (1983)
Month to date snowfall 0.4 0.8  
Since 1 July snowfall 61.1 28.4  
Snow Depth 0.00 in    
Sea Level Pressure  
Sea Level Pressure 30.26 in    
Wind  
Wind Speed 9 mph (NNW)    
Max Wind Speed 22 mph    
Max Gust Speed 28 mph    
Visibility 10 miles    
Events      
T = Trace of Precipitation, MM = Missing Value Source: NWS Daily Summary

Daily Weather History Graph

Daily Weather History Graph

Search for Another Location

Airport:

Trip Planner

Search our weather history database for the weather conditions in past years. The results will help you decide how hot, cold, wet, or windy it might be!

Date:

Astronomy

Apr. 19, 2014 Rise Set
Actual Time 6:12 AM EDT 7:40 PM EDT
Civil Twilight 5:43 AM EDT 8:08 PM EDT
Nautical Twilight 5:08 AM EDT 8:43 PM EDT
Astronomical Twilight 4:32 AM EDT 9:20 PM EDT
Moon No Moon Rise 9:27 AM EDT (4/19)
Length of Visible Light 14h 25m
Length of Day
13h 28m
Waning Gibbous, 79% of the Moon is Illuminated
Apr 19
Waning Gibbous
Apr 22
Last Quarter
Apr 29
New
May 6
First Quarter
May 14
Full

Hourly Weather History & Observations

Time (EDT) Temp. Windchill Dew Point Humidity Pressure Visibility Wind Dir Wind Speed Gust Speed Precip Events Conditions
12:51 AM 39.9 °F 35.8 °F 33.1 °F 77% 30.27 in 10.0 mi SW 5.8 mph - N/A   Overcast
1:51 AM 39.9 °F 37.8 °F 32.0 °F 73% 30.27 in 10.0 mi SSW 3.5 mph - N/A   Overcast
2:51 AM 39.9 °F 35.1 °F 33.1 °F 77% 30.25 in 10.0 mi SW 6.9 mph - N/A   Overcast
3:51 AM 39.0 °F 35.7 °F 33.1 °F 79% 30.23 in 10.0 mi SW 4.6 mph - N/A   Overcast
4:51 AM 39.2 °F 35.0 °F 33.8 °F 81% 30.24 in 10.0 mi SW 5.8 mph - N/A   Mostly Cloudy
5:51 AM 39.9 °F 35.1 °F 35.1 °F 83% 30.24 in 10.0 mi SW 6.9 mph - N/A   Mostly Cloudy
6:51 AM 41.0 °F 37.1 °F 35.1 °F 79% 30.25 in 10.0 mi WSW 5.8 mph - N/A   Mostly Cloudy
7:51 AM 44.6 °F 43.1 °F 37.4 °F 76% 30.27 in 10.0 mi Variable 3.5 mph - N/A   Mostly Cloudy
8:51 AM 51.1 °F - 37.9 °F 61% 30.27 in 10.0 mi Variable 3.5 mph - N/A   Scattered Clouds
9:51 AM 57.0 °F - 30.9 °F 37% 30.27 in 10.0 mi North 10.4 mph 23.0 mph N/A   Mostly Cloudy
10:51 AM 61.0 °F - 28.0 °F 29% 30.28 in 10.0 mi NW 10.4 mph - N/A   Mostly Cloudy
11:51 AM 63.0 °F - 21.9 °F 21% 30.27 in 10.0 mi NNW 10.4 mph 18.4 mph N/A   Mostly Cloudy
12:51 PM 64.9 °F - 23.0 °F 20% 30.25 in 10.0 mi NNE 15.0 mph 25.3 mph N/A   Mostly Cloudy
1:51 PM 64.9 °F - 27.0 °F 24% 30.23 in 10.0 mi North 13.8 mph 20.7 mph N/A   Mostly Cloudy
2:51 PM 66.9 °F - 21.0 °F 17% 30.22 in 10.0 mi NNW 17.3 mph 20.7 mph N/A   Mostly Cloudy
3:51 PM 68.0 °F - 19.9 °F 16% 30.22 in 10.0 mi North 10.4 mph 21.9 mph N/A   Mostly Cloudy
4:51 PM 66.9 °F - 19.9 °F 17% 30.22 in 10.0 mi North 5.8 mph - N/A   Mostly Cloudy
5:51 PM 66.9 °F - 19.9 °F 17% 30.23 in 10.0 mi NNW 10.4 mph 18.4 mph N/A   Mostly Cloudy
6:51 PM 64.0 °F - 23.0 °F 21% 30.25 in 10.0 mi NE 11.5 mph - N/A   Mostly Cloudy
7:51 PM 63.0 °F - 21.0 °F 20% 30.26 in 10.0 mi NE 6.9 mph - N/A   Mostly Cloudy
8:51 PM 60.1 °F - 26.1 °F 27% 30.29 in 10.0 mi ESE 4.6 mph - N/A   Mostly Cloudy
9:51 PM 57.9 °F - 25.0 °F 28% 30.32 in 10.0 mi NNE 13.8 mph - N/A   Scattered Clouds
10:51 PM 55.0 °F - 23.0 °F 29% 30.34 in 10.0 mi NNE 13.8 mph - N/A   Mostly Cloudy
11:51 PM 53.1 °F - 25.0 °F 34% 30.34 in 10.0 mi NNE 11.5 mph - N/A   Mostly Cloudy